This is the latest recevied weather packets stored in our database for station/object DD3UTS-13. If no packets are shown the sender has not sent any weather packets the latest 10 day(s).
| Time | Temp. | Humidity | Pressure | Rain* | Wind** | Luminosity | Snow |
|---|---|---|---|---|---|---|---|
| 1777568732 | 16.11° C | 38% | 1027.8 hPa | 0 mm | - | 418 W/m² | - |
| 1777568432 | 16.11° C | 38% | 1027.9 hPa | 0 mm | - | 102 W/m² | - |
| 1777568132 | 16.67° C | 38% | 1027.7 hPa | 0 mm | - | 442 W/m² | - |
| 1777567832 | 16.67° C | 37% | 1028 hPa | 0 mm | - | 456 W/m² | - |
| 1777567532 | 16.67° C | 37% | 1028 hPa | 0 mm | - | 459 W/m² | - |
| 1777567232 | 16.67° C | 37% | 1028 hPa | 0 mm | - | 464 W/m² | - |
| 1777566932 | 16.67° C | 37% | 1028 hPa | 0 mm | - | 477 W/m² | - |
| 1777566632 | 17.22° C | 37% | 1028 hPa | 0 mm | - | 476 W/m² | - |
| 1777566332 | 17.22° C | 37% | 1028 hPa | 0 mm | - | 488 W/m² | - |
| 1777566032 | 16.67° C | 38% | 1028.1 hPa | 0 mm | - | 466 W/m² | - |
| 1777565732 | 16.11° C | 39% | 1028.1 hPa | 0 mm | - | 488 W/m² | - |
| 1777565433 | 15.56° C | 38% | 1028.1 hPa | 0 mm | - | 483 W/m² | - |
| 1777565132 | 16.11° C | 37% | 1028.1 hPa | 0 mm | - | 137 W/m² | - |
| 1777564832 | 16.67° C | 38% | 1027.8 hPa | 0 mm | - | 387 W/m² | - |
| 1777564532 | 16.67° C | 37% | 1027.9 hPa | 0 mm | - | 174 W/m² | - |
| 1777564232 | 17.22° C | 36% | 1028.1 hPa | 0 mm | - | 182 W/m² | - |
| 1777563932 | 17.22° C | 38% | 1028.3 hPa | 0 mm | - | 527 W/m² | - |
| 1777563631 | 17.22° C | 36% | 1028.3 hPa | 0 mm | - | 524 W/m² | - |
| 1777563332 | 17.22° C | 36% | 1028.2 hPa | 0 mm | - | 522 W/m² | - |
| 1777563032 | 17.78° C | 37% | 1028.3 hPa | 0 mm | - | 514 W/m² | - |
| 1777562732 | 17.22° C | 37% | 1028.3 hPa | 0 mm | - | 503 W/m² | - |
| 1777562431 | 17.22° C | 36% | 1028.4 hPa | 0 mm | - | 530 W/m² | - |
| 1777562132 | 17.22° C | 36% | 1028.4 hPa | 0 mm | - | 528 W/m² | - |
| 1777561832 | 17.22° C | 36% | 1028.4 hPa | 0 mm | - | 536 W/m² | - |
| 1777561532 | 16.67° C | 38% | 1028.5 hPa | 0 mm | - | 547 W/m² | - |
* Rain latest 24 hours (hover to see other rain measurements)
** Current wind speed in m/s (hover to see current wind gust speed)